Regional Weather Roundup
Issued by NWS

Home | Current Version | Previous Version | Graphics & Text | Print | Product List | Glossary Off
Versions: 1 2 3 4 5 6 7 8 9 10 11 12 13 14 15 16 17 18 19 20 21 22 23 24 25 26 27 28 29 30 31 32 33 34 35 36 37 38 39 40 41 42 43 44 45 46 47 48 49 50

000
ASUS43 KMKX 201821
RWRWI

WISCONSIN REGIONAL WEATHER ROUNDUP
NATIONAL WEATHER SERVICE MILWAUKEE/SULLIVAN WI
100 PM CDT SUN APR 20 2014

NOTE: "FAIR" INDICATES FEW OR NO CLOUDS BELOW 12,000 FEET WITH NO
SIGNIFICANT WEATHER AND/OR OBSTRUCTIONS TO VISIBILITY.

WIZ001-002-006>008-014>016-023>028-201900-
NORTHWEST WISCONSIN

CITY           SKY/WX    TMP DP  RH WIND       PRES   REMARKS
SUPERIOR ARPT  SUNNY     59  38  46 CALM      30.03F
6HR MIN TEMP:  29; 6HR MAX TEMP:  59;

ASHLAND        SUNNY     59  40  49 N6        30.03F
6HR MIN TEMP:  36; 6HR MAX TEMP:  60;

HAYWARD        SUNNY     66  34  30 W6        30.03F
6HR MIN TEMP:  38; 6HR MAX TEMP:  66;

SIREN          SUNNY     64  38  37 CALM      30.04S
6HR MIN TEMP:  34; 6HR MAX TEMP:  64;

RICE LAKE      SUNNY     69  38  32 SE3       30.03F
6HR MIN TEMP:  39; 6HR MAX TEMP:  69;

LADYSMITH      SUNNY     67  49  51 S3        30.05S
6HR MIN TEMP:  48; 6HR MAX TEMP:  67;

EAU CLAIRE     PTSUNNY   64  50  60 CALM      30.03F
6HR MIN TEMP:  51; 6HR MAX TEMP:  64;

MENOMONIE      PTCLDY    64  50  60 S6        30.03F
6HR MIN TEMP:  49; 6HR MAX TEMP:  66; 6HR PCP:  0.01;

NEW RICHMOND   SUNNY     68  49  50 S6        30.02F
6HR MIN TEMP:  43; 6HR MAX TEMP:  68;

OSCEOLA        SUNNY     69  39  32 CALM      30.04F
6HR MIN TEMP:  43; 6HR MAX TEMP:  70;

$$

WIZ003>005-009-010-017-018-201900-
NORTH CENTRAL WISCONSIN

CITY           SKY/WX    TMP DP  RH WIND       PRES   REMARKS
WOODRUFF       MOSUNNY   69  44  40 CALM      30.03S
6HR MIN TEMP:  44; 6HR MAX TEMP:  69;

RHINELANDER    MOSUNNY   60  47  61 W10       30.05
6HR MIN TEMP:  48; 6HR MAX TEMP:  60;

EAGLE RIVER    MOSUNNY   64  40  42 SW9       30.03F
6HR MIN TEMP:  39; 6HR MAX TEMP:  64;

LAND O LAKES   MOSUNNY   64  37  36 SW3       30.03F
6HR MIN TEMP:  45; 6HR MAX TEMP:  64;

PHILLIPS       SUNNY     66  41  39 SW7       30.02F
6HR MIN TEMP:  43; 6HR MAX TEMP:  67;

TOMAHAWK       CLOUDY    61  48  62 CALM      30.05S
6HR MIN TEMP:  45; 6HR MAX TEMP:  61;

MEDFORD        CLOUDY    59  52  77 S10       30.05F
6HR MIN TEMP:  47; 6HR MAX TEMP:  59; 6HR PCP:  0.01;

MERRILL        CLOUDY    62  51  68 CALM      30.05F
6HR MIN TEMP:  48; 6HR MAX TEMP:  62;

$$

WIZ029-030-035-036-043>047-201900-
CENTRAL WISCONSIN

CITY           SKY/WX    TMP DP  RH WIND       PRES   REMARKS
WAUSAU         CLOUDY    58  49  72 S10       30.06F
6HR MIN TEMP:  49; 6HR MAX TEMP:  60; 6HR PCP:  0.01;

MOSINEE        MOSUNNY   57  52  82 SW12      30.09F
MARSHFIELD     RAIN      54  51  90 SW9       30.07F FOG
6HR MIN TEMP:  50; 6HR MAX TEMP:  60; 6HR PCP:  0.06;

STEVENS POINT  CLOUDY    51  47  86 SW8       30.10F
6HR MIN TEMP:  47; 6HR MAX TEMP:  53; 6HR PCP:  0.10;

WAUPACA        LGT RAIN  54  48  82 SE5       30.11F
WAUTOMA        LGT RAIN  56  48  74 CALM      30.11F
6HR MIN TEMP:  55; 6HR MAX TEMP:  59; 6HR PCP:  0.01;

WISC RAPIDS    CLOUDY    53  50  89 S7        30.11S
6HR MIN TEMP:  50; 6HR MAX TEMP:  57; 6HR PCP:  0.28;

CAMP DOUGLAS   DRIZZLE   55  55 100 S5        30.09F
                                      6HR PCP:  0.14;

$$

WIZ011>013-019>022-031-037>040-048>050-201900-
NORTHEAST WISCONSIN

CITY           SKY/WX    TMP DP  RH WIND       PRES   REMARKS
ANTIGO         CLOUDY    60  52  73 SW12G17   30.07F
6HR MIN TEMP:  44; 6HR MAX TEMP:  60; 6HR PCP:  0.02;

STURGEON BAY   CLOUDY    39  36  87 S9        30.13S WCI  33
6HR MIN TEMP:  37; 6HR MAX TEMP:  39; 6HR PCP:  0.12;

GREEN BAY      LGT RAIN  52  46  80 S7        30.11F
6HR MIN TEMP:  48; 6HR MAX TEMP:  52; 6HR PCP:  0.03;

MANITOWOC      CLOUDY    48  37  65 E5        30.15S
6HR MIN TEMP:  41; 6HR MAX TEMP:  48; 6HR PCP: TRACE;

APPLETON       DRIZZLE   52  45  76 VRB5      30.12F
CLINTONVILLE   LGT RAIN  52  46  82 SW6       30.10F
OSHKOSH        CLOUDY    61  42  49 VRB3      30.11F
6HR MIN TEMP:  50; 6HR MAX TEMP:  61;

$$

WIZ032>034-041-042-053>061-201900-
SOUTHWEST WISCONSIN

CITY           SKY/WX    TMP DP  RH WIND       PRES   REMARKS
LA CROSSE      LGT RAIN  54  50  86 S10       30.07F FOG
6HR MIN TEMP:  53; 6HR MAX TEMP:  60; 6HR PCP:  0.23;

SPARTA         LGT RAIN  55  51  86 SW3       30.09F
6HR MIN TEMP:  53; 6HR MAX TEMP:  61; 6HR PCP:  0.17;

VIROQUA        CLOUDY    55  52  87 S7        30.09F
6HR MIN TEMP:  53; 6HR MAX TEMP:  56; 6HR PCP:  0.14;

BOSCOBEL       LGT RAIN  67  47  48 W5        30.09F
6HR MIN TEMP:  61; 6HR MAX TEMP:  68; 6HR PCP: TRACE;

PRAIRIE DU CHI CLOUDY    63  48  59 CALM      30.09S
6HR MIN TEMP:  59; 6HR MAX TEMP:  64; 6HR PCP:  0.02;

PLATTEVILLE    FAIR      76  44  32 SW13G18   30.09F
6HR MIN TEMP:  53; 6HR MAX TEMP:  77;

$$

WIZ056-057-062-063-064-067-068-201900-
SOUTH CENTRAL WISCONSIN

CITY           SKY/WX    TMP DP  RH WIND       PRES   REMARKS
BARABOO/DELLS  CLOUDY    64  43  46 CALM      30.10F
6HR MIN TEMP:  54; 6HR MAX TEMP:  64;

LONE ROCK      CLOUDY    69  46  43 SW7       30.08F
6HR MIN TEMP:  55; 6HR MAX TEMP:  69; 6HR PCP: TRACE;

WATERTOWN      MOSUNNY   73  44  35 SW14      30.10F
6HR MIN TEMP:  48; 6HR MAX TEMP:  73; 6HR PCP:  0.01;

MADISON        CLOUDY    70  41  34 SW7       30.11F
6HR MIN TEMP:  52; 6HR MAX TEMP:  70; 6HR PCP: TRACE;

MIDDLETON      MOCLDY    73  37  27 SW6       30.10F
6HR MIN TEMP:  53; 6HR MAX TEMP:  73;

MONROE         PTSUNNY   75  43  31 S10G20    30.11F
6HR MIN TEMP:  51; 6HR MAX TEMP:  75;

JANESVILLE     PTSUNNY   77  37  24 S14G20    30.11F
$$

WIZ051-052-058>065-066-070>072-201900-
SOUTHEAST WISCONSIN

CITY           SKY/WX    TMP DP  RH WIND       PRES   REMARKS
MILWAUKEE      MOSUNNY   73  39  29 S14G21    30.13F
6HR MIN TEMP:  48; 6HR MAX TEMP:  73;

WAUKESHA       MOSUNNY   72  39  30 SW12      30.13F
MILWAUKEE/TIMM SUNNY     72  36  26 S12       30.13F
RACINE         SUNNY     62  37  39 S13       30.16F
6HR MIN TEMP:  44; 6HR MAX TEMP:  62;

BURLINGTON     SUNNY     73  40  31 SW14      30.13F
6HR MIN TEMP:  46; 6HR MAX TEMP:  73;

KENOSHA        SUNNY     73  41  31 SW10G22   30.14F
6HR MIN TEMP:  48; 6HR MAX TEMP:  74;

FOND DU LAC    PTSUNNY   68  44  42 S10       30.10F
6HR MIN TEMP:  51; 6HR MAX TEMP:  68; 6HR PCP: TRACE;

SHEBOYGAN      PTSUNNY   59  41  51 VRB3      30.12F
6HR MIN TEMP:  43; 6HR MAX TEMP:  59;

WEST BEND      PTSUNNY   70  36  28 SW12      30.10F
JUNEAU         PTSUNNY   67  35  31 S9        30.12F
6HR MIN TEMP:  50; 6HR MAX TEMP:  68;

$$

LSZ147-162-201900-
LAKE SUPERIOR

STATION/POSITION TIME  TEMP    WIND        PRES    WAVE
                       AIR SEA DIR/SP/G            HT/PER
                 (UTC) (F)     (DEG/KT/KT) (MB)    (FT/S)
DEVILS ISLAND    1800   43     240/  6/  7 1017.9F
PORT WING        1740   42     360/  2/  3 1017.6F
SAXON HARBOR     1700             CALM     1017.6S
$$

LMZ867-665-643>646-201900-
LAKE MICHIGAN

STATION/POSITION TIME  TEMP    WIND        PRES    WAVE
                       AIR SEA DIR/SP/G            HT/PER
                 (UTC) (F)     (DEG/KT/KT) (MB)    (FT/S)
NORTHPORT PIER   1700   38     160/  9/ 13 1020.3F
SISTER BAY       1739   38     140/  9/ 11   N/A
KEWAUNEE LAKESHO 1700   39     180/ 11/ 13 1021.5F
SHEBOYGAN LAKESH 1800   41     170/ 16/ 17 1020.8F
PORT WASHINGTON  1700   46     190/  8/ 11 1021.7F
MILWAUKEE LAKESH 1800   44     140/ 19/ 21   N/A
KENOSHA   LAKESH 1800   46     160/ 11/ 14   N/A
$$

TC  - TEMPERATURE IN CELSIUS
VSB - VISIBILITY IN STATUTE MILES
WCI - WIND CHILL INDEX
HX  - HEAT INDEX




USA.gov is the U.S. government's official web portal to all federal, state and local government web resources and services.